Weather History for Thermopolis, WY

Change the Weather History Date:

Thursday, October 10, 2013

  Actual Average (KWRL) Record (KWRL)
Temperature  
Mean Temperature 37 °F 48 °F  
Max Temperature 41 °F 63 °F 86 °F (1996)
Min Temperature 33 °F 33 °F 14 °F (2009)
Degree Days  
Heating Degree Days 28 17  
Month to date heating degree days 154  
Since 1 July heating degree days 411  
Cooling Degree Days 0 0  
Month to date cooling degree days 0  
Year to date cooling degree days 535  
Moisture  
Dew Point 35 °F    
Average Humidity 93    
Maximum Humidity 100    
Minimum Humidity 81    
Precipitation  
Precipitation 0.00 in 0.03 in 0.41 in (1961)
Month to date precipitation 0.30  
Year to date precipitation 6.60  
Sea Level Pressure  
Sea Level Pressure 29.87 in    
Wind  
Wind Speed 13 mph (SSE)    
Max Wind Speed 43 mph    
Max Gust Speed 46 mph    
Visibility 6 miles    
Events Fog , Rain , Snow    
T = Trace of Precipitation, MM = Missing Value Source: NWS Daily Summary

Daily Weather History Graph

Daily Weather History Graph

Search for Another Location

Airport:

Trip Planner

Search our weather history database for the weather conditions in past years. The results will help you decide how hot, cold, wet, or windy it might be!

Date:

Astronomy

Oct. 10, 2013 Rise Set
Actual Time 7:21 AM MDT 6:37 PM MDT
Civil Twilight 6:52 AM MDT 7:06 PM MDT
Nautical Twilight 6:19 AM MDT 7:39 PM MDT
Astronomical Twilight 5:46 AM MDT 8:12 PM MDT
Moon 1:22 PM MDT (10/10) 11:12 PM MDT (10/10)
Length of Visible Light 12h 13m
Length of Day
11h 16m
Waxing Crescent, 36% of the Moon is Illuminated
Oct 10
Waxing Crescent
Oct 11
First Quarter
Oct 18
Full
Oct 26
Last Quarter
Nov 3
New

Hourly Weather History & Observations

Time (MDT) Temp. Windchill Dew Point Humidity Pressure Visibility Wind Dir Wind Speed Gust Speed Precip Events Conditions
12:15 AM 35.6 °F 26.6 °F 33.8 °F 93% 30.04 in 10.0 mi South 13.8 mph - N/A   Scattered Clouds
12:35 AM 37.4 °F 30.3 °F 32.0 °F 81% 30.03 in 10.0 mi SSE 10.4 mph - N/A   Clear
12:55 AM 37.4 °F 32.1 °F 32.0 °F 81% 30.01 in 10.0 mi SSE 6.9 mph - N/A   Clear
1:15 AM 37.4 °F 32.1 °F 32.0 °F 81% 30.01 in 10.0 mi SSE 6.9 mph - N/A   Clear
1:35 AM 37.4 °F 32.8 °F 32.0 °F 81% 30.01 in 10.0 mi SSE 5.8 mph - N/A   Clear
1:55 AM 35.6 °F 29.9 °F 32.0 °F 87% 30.00 in 10.0 mi SSE 6.9 mph - N/A   Clear
2:15 AM 35.6 °F 30.7 °F 32.0 °F 87% 30.00 in 10.0 mi SSE 5.8 mph - N/A   Clear
2:35 AM 37.4 °F 31.4 °F 32.0 °F 81% 29.99 in 10.0 mi SE 8.1 mph - N/A   Clear
2:55 AM 35.6 °F 29.9 °F 32.0 °F 87% 29.99 in 10.0 mi SSE 6.9 mph - N/A   Clear
3:15 AM 35.6 °F 28.0 °F 32.0 °F 87% 29.97 in 10.0 mi SSE 10.4 mph - N/A   Clear
3:35 AM 35.6 °F 26.2 °F 32.0 °F 87% 29.96 in 10.0 mi SSE 15.0 mph - N/A   Clear
3:55 AM 35.6 °F 26.2 °F 32.0 °F 87% 29.95 in 10.0 mi SSE 15.0 mph 23.0 mph N/A   Clear
4:15 AM 35.6 °F 24.8 °F 32.0 °F 87% 29.95 in 10.0 mi SSE 19.6 mph 23.0 mph N/A   Clear
4:35 AM 35.6 °F 25.9 °F 32.0 °F 87% 29.94 in 10.0 mi SE 16.1 mph 20.7 mph N/A   Scattered Clouds
4:55 AM 35.6 °F 24.2 °F 32.0 °F 87% 29.94 in 10.0 mi SE 21.9 mph - N/A   Scattered Clouds
5:15 AM 35.6 °F 26.6 °F 32.0 °F 87% 29.94 in 10.0 mi SE 13.8 mph 17.3 mph N/A   Mostly Cloudy
5:35 AM 35.6 °F 29.2 °F 32.0 °F 87% 29.92 in 10.0 mi SSE 8.1 mph - N/A   Overcast
5:55 AM 35.6 °F 25.2 °F 32.0 °F 87% 29.92 in 10.0 mi SE 18.4 mph - N/A   Mostly Cloudy
6:15 AM 33.8 °F 23.5 °F 32.0 °F 93% 29.92 in 10.0 mi SE 16.1 mph - N/A   Clear
6:35 AM 33.8 °F 23.9 °F 32.0 °F 93% 29.92 in 10.0 mi SE 15.0 mph - N/A   Clear
6:55 AM 33.8 °F 23.9 °F 32.0 °F 93% 29.90 in 10.0 mi SE 15.0 mph - N/A   Clear
7:15 AM 33.8 °F 23.5 °F 32.0 °F 93% 29.89 in 10.0 mi SE 16.1 mph - N/A   Clear
7:35 AM 33.8 °F 23.5 °F 32.0 °F 93% 29.89 in 10.0 mi SE 16.1 mph - N/A   Mostly Cloudy
7:55 AM 33.8 °F 23.2 °F 32.0 °F 93% 29.89 in 10.0 mi SE 17.3 mph - N/A   Scattered Clouds
8:15 AM 33.8 °F 23.2 °F 32.0 °F 93% 29.88 in 10.0 mi SE 17.3 mph - N/A   Clear
8:35 AM 33.8 °F 22.8 °F 32.0 °F 93% 29.89 in 10.0 mi SE 18.4 mph - N/A   Clear
8:55 AM 33.8 °F 22.8 °F 32.0 °F 93% 29.89 in 10.0 mi SE 18.4 mph - N/A   Clear
9:15 AM 33.8 °F 23.2 °F 32.0 °F 93% 29.88 in 10.0 mi SE 17.3 mph - N/A   Clear
9:35 AM 35.6 °F 26.6 °F 33.8 °F 93% 29.88 in 10.0 mi SE 13.8 mph - N/A   Scattered Clouds
9:55 AM 35.6 °F 24.8 °F 33.8 °F 93% 29.87 in 10.0 mi SE 19.6 mph - N/A   Mostly Cloudy
10:15 AM 33.8 °F 22.2 °F 33.8 °F 100% 29.88 in 0.2 mi SE 20.7 mph - N/A Snow Light Snow
10:35 AM 33.8 °F 22.2 °F 33.8 °F 100% 29.87 in 0.2 mi SE 20.7 mph - N/A Snow Heavy Snow
10:55 AM 33.8 °F 22.2 °F 33.8 °F 100% 29.87 in 0.2 mi SE 20.7 mph - N/A Snow Light Snow
11:15 AM 33.8 °F 21.6 °F 33.8 °F 100% 29.86 in 0.2 mi SE 23.0 mph - N/A Rain Light Rain
11:35 AM 35.6 °F 25.2 °F 35.6 °F 100% 29.86 in 0.2 mi SE 18.4 mph - N/A Rain Light Rain
11:55 AM 35.6 °F 25.5 °F 33.8 °F 93% 29.87 in 0.2 mi SE 17.3 mph - N/A Rain Light Rain
12:15 PM 35.6 °F 28.0 °F 35.6 °F 100% 29.86 in 0.2 mi SE 10.4 mph - N/A Rain Light Rain
12:35 PM 37.4 °F 28.2 °F 37.4 °F 100% 29.85 in 7.0 mi South 16.1 mph - N/A Rain Rain
12:55 PM 39.2 °F 31.6 °F 37.4 °F 93% 29.84 in 10.0 mi South 12.7 mph - N/A   Drizzle
1:15 PM 39.2 °F 30.8 °F 37.4 °F 93% 29.83 in 10.0 mi South 15.0 mph - N/A   Drizzle
1:35 PM 39.2 °F 31.6 °F 37.4 °F 93% 29.83 in 10.0 mi South 12.7 mph - N/A   Drizzle
1:55 PM 37.4 °F 28.9 °F 37.4 °F 100% 29.82 in 10.0 mi SSE 13.8 mph - N/A Rain Rain
2:15 PM 39.2 °F 37.0 °F 37.4 °F 93% 29.81 in 7.0 mi SSE 3.5 mph - N/A   Drizzle
2:35 PM 41.0 °F 35.8 °F 37.4 °F 87% 29.80 in 10.0 mi South 8.1 mph - N/A   Mostly Cloudy
2:55 PM 41.0 °F 36.4 °F 37.4 °F 87% 29.80 in 10.0 mi SSE 6.9 mph - N/A   Overcast
3:15 PM 39.2 °F 33.6 °F 37.4 °F 93% 29.81 in 0.2 mi SE 8.1 mph - N/A   Unknown
3:35 PM 37.4 °F 33.8 °F 37.4 °F 100% 29.81 in 0.2 mi SE 4.6 mph - N/A Snow Light Snow
3:55 PM 37.4 °F 32.8 °F 37.4 °F 100% 29.81 in 0.2 mi SE 5.8 mph - N/A Snow Light Snow
4:15 PM 37.4 °F 30.8 °F 37.4 °F 100% 29.81 in 0.2 mi South 9.2 mph - N/A Snow Light Snow
4:35 PM 37.4 °F 32.8 °F 37.4 °F 100% 29.81 in 0.2 mi SE 5.8 mph - N/A Fog Fog
4:55 PM 37.4 °F 32.8 °F 37.4 °F 100% 29.81 in 0.2 mi SSE 5.8 mph - N/A Fog Fog
5:15 PM 37.4 °F 32.1 °F 37.4 °F 100% 29.81 in 0.5 mi SE 6.9 mph - N/A Fog Fog
5:35 PM 37.4 °F - 37.4 °F 100% 29.80 in 10.0 mi Calm Calm - N/A   Overcast
5:55 PM 41.0 °F - 35.6 °F 81% 29.79 in 10.0 mi Calm Calm - N/A   Overcast
6:15 PM 41.0 °F - 35.6 °F 81% 29.80 in 10.0 mi Calm Calm - N/A   Overcast
6:35 PM 37.4 °F 34.9 °F 37.4 °F 100% 29.81 in 10.0 mi ESE 3.5 mph - N/A   Overcast
6:55 PM 37.4 °F 34.9 °F 37.4 °F 100% 29.81 in 0.2 mi West 3.5 mph - N/A Fog Fog
7:15 PM 37.4 °F 33.8 °F 37.4 °F 100% 29.81 in 10.0 mi North 4.6 mph - N/A   Overcast
7:35 PM 39.2 °F - 35.6 °F 87% 29.81 in 10.0 mi Calm Calm - N/A   Overcast
7:55 PM 41.0 °F - 35.6 °F 81% 29.81 in 10.0 mi Calm Calm - N/A   Overcast
8:15 PM 39.2 °F 34.2 °F 35.6 °F 87% 29.81 in 10.0 mi WNW 6.9 mph - N/A   Overcast
8:35 PM 37.4 °F 29.3 °F 37.4 °F 100% 29.81 in 0.2 mi NW 12.7 mph - N/A Snow Light Snow
8:55 PM 37.4 °F 29.3 °F 35.6 °F 93% 29.81 in 0.2 mi NNW 12.7 mph - N/A Snow Light Snow
9:15 PM 37.4 °F 27.8 °F 37.4 °F 100% 29.80 in 0.2 mi NW 17.3 mph - N/A Snow Heavy Snow
9:35 PM 37.4 °F 27.2 °F 37.4 °F 100% 29.79 in 0.2 mi NW 19.6 mph - N/A Snow Heavy Snow
9:55 PM 37.4 °F 26.6 °F 37.4 °F 100% 29.78 in 0.2 mi NW 21.9 mph - N/A Snow Heavy Snow
10:15 PM 37.4 °F 25.9 °F 37.4 °F 100% 29.77 in 0.2 mi NW 25.3 mph - N/A Snow Heavy Snow
10:35 PM 37.4 °F 24.6 °F 37.4 °F 100% 29.76 in 0.2 mi NW 32.2 mph 36.8 mph N/A Snow Heavy Snow
10:55 PM 37.4 °F 23.6 °F 37.4 °F 100% 29.76 in 0.2 mi NW 38.0 mph - N/A Snow Light Snow
11:15 PM 37.4 °F 23.0 °F 35.6 °F 93% 29.74 in 0.2 mi WNW 42.6 mph 46.0 mph N/A Snow Heavy Snow
11:35 PM 35.6 °F 21.5 °F 35.6 °F 100% 29.76 in 0.2 mi WNW 35.7 mph - N/A Snow Heavy Snow
11:55 PM 35.6 °F 21.5 °F 35.6 °F 100% 29.77 in 0.2 mi NW 35.7 mph - N/A Snow Heavy Snow